User: anonymous   Login
Location: West Cummington
(42.4920°N, 72.9680°W)
Time: 11:52:02
(UTC-04:00)
Language:

Cosmos 841 Rocket - Orbit

View from above orbital plane
View from above orbital plane
View from above satellite
View from above satellite

Ground track
Ground track

The orbit data is extracted from the following two-line orbital elements,

1 09023U 76069B   14302.79876195  .00000321  00000-0  11192-3 0  5285
2 09023 074.0452 070.7306 0016587 114.1134 246.1758 14.39224871  6496
Epoch (UTC): 29 October 2014 19:10:13
Eccentricity: 0.0016587
inclination: 74.0452°
perigee height: 749 km
apogee height: 773 km
right ascension of ascending node: 70.7306°
argument of perigee: 114.1134°
revolutions per day: 14.39224871
mean anomaly at epoch: 246.1758°
orbit number at epoch: 649

The dashed part of the orbit path shows where the satellite is in the earth's shadow,  

DLR